, AK

(GMT )
Golovin

Weather History for PAGL - October, 2013

Change the Weather History Date:

Wednesday, October 30, 2013

  Actual Average Record
Temperature  
Mean Temperature 24 °F -  
Max Temperature 28 °F - - ()
Min Temperature 19 °F - - ()
Degree Days  
Heating Degree Days 42    
Moisture  
Dew Point 21 °F    
Average Humidity 86    
Maximum Humidity 100    
Minimum Humidity 69    
Precipitation  
Precipitation 0.00 in - - ()
Sea Level Pressure  
Sea Level Pressure 29.42 in    
Wind  
Wind Speed 7 mph (North)    
Max Wind Speed 10 mph    
Max Gust Speed -    
Visibility 10 miles    
Events      
T = Trace of Precipitation, MM = Missing Value Source: NWS Daily Summary

Daily Weather History Graph

Daily Weather History Graph

Search for Another Location

Airport or City:

Trip Planner

Search our weather history database for the weather conditions in past years. The results will help you decide how hot, cold, wet, or windy it might be!

Date:

Astronomy

Oct. 30, 2013 Rise Set
Actual Time 10:33 AM AKDT 6:37 PM AKDT
Civil Twilight 9:39 AM AKDT 7:31 PM AKDT
Nautical Twilight 8:41 AM AKDT 8:28 PM AKDT
Astronomical Twilight 7:45 AM AKDT 9:24 PM AKDT
Moon 5:14 AM AKDT (10/30) 5:38 PM AKDT (10/30)
Length of Visible Light 9h 51m
Length of Day
8h 04m
Waning Crescent, 16% of the Moon is Illuminated
Oct 30
Waning Crescent
Nov 3
New
Nov 9
First Quarter
Nov 17
Full
Nov 25
Last Quarter

Hourly Weather History & Observations

Time (AKDT) Temp. Windchill Dew Point Humidity Pressure Visibility Wind Dir Wind Speed Gust Speed Precip Events Conditions
12:16 AM 28.4 °F 23.3 °F 26.6 °F 93% 29.46 in 10.0 mi North 4.6 mph - N/A   Overcast
12:36 AM 28.4 °F 21.2 °F 26.6 °F 93% 29.46 in 10.0 mi North 6.9 mph - N/A   Overcast
12:56 AM 28.4 °F 22.2 °F 26.6 °F 93% 29.46 in 10.0 mi North 5.8 mph - N/A   Overcast
1:16 AM 28.4 °F 21.2 °F 26.6 °F 93% 29.45 in 10.0 mi North 6.9 mph - N/A   Mostly Cloudy
1:36 AM 26.6 °F 20.0 °F 24.8 °F 93% 29.45 in 10.0 mi NNE 5.8 mph - N/A   Partly Cloudy
1:56 AM 24.8 °F 16.9 °F 23.0 °F 93% 29.45 in 10.0 mi NNE 6.9 mph - N/A   Clear
2:16 AM 24.8 °F 16.9 °F 23.0 °F 93% 29.44 in 10.0 mi North 6.9 mph - N/A   Partly Cloudy
2:36 AM 24.8 °F 16.1 °F 23.0 °F 93% 29.44 in 10.0 mi North 8.1 mph - N/A   Clear
2:56 AM 24.8 °F 16.9 °F 23.0 °F 93% 29.43 in 10.0 mi North 6.9 mph - N/A   Clear
3:16 AM 24.8 °F 16.9 °F 21.2 °F 86% 29.43 in 10.0 mi NNW 6.9 mph - N/A   Clear
3:36 AM 24.8 °F 16.1 °F 21.2 °F 86% 29.43 in 10.0 mi North 8.1 mph - N/A   Clear
3:56 AM 24.8 °F 16.9 °F 21.2 °F 86% 29.43 in 10.0 mi NNE 6.9 mph - N/A   Clear
4:16 AM 24.8 °F 19.1 °F 21.2 °F 86% 29.42 in 10.0 mi North 4.6 mph - N/A   Clear
4:36 AM 24.8 °F 16.9 °F 21.2 °F 86% 29.42 in 10.0 mi North 6.9 mph - N/A   Clear
4:56 AM 24.8 °F 16.9 °F 21.2 °F 86% 29.42 in 10.0 mi North 6.9 mph - N/A   Clear
5:16 AM 24.8 °F 16.9 °F 23.0 °F 93% 29.42 in 10.0 mi North 6.9 mph - N/A   Clear
5:36 AM 24.8 °F 16.9 °F 21.2 °F 86% 29.42 in 10.0 mi North 6.9 mph - N/A   Partly Cloudy
5:56 AM 23.0 °F 14.7 °F 21.2 °F 93% 29.41 in 10.0 mi North 6.9 mph - N/A   Clear
6:16 AM 21.2 °F 13.6 °F 17.6 °F 86% 29.41 in 10.0 mi North 5.8 mph - N/A   Clear
6:36 AM 23.0 °F 14.7 °F 19.4 °F 86% 29.41 in 10.0 mi NNW 6.9 mph - N/A   Clear
6:56 AM 24.8 °F 16.1 °F 21.2 °F 86% 29.40 in 10.0 mi North 8.1 mph - N/A   Clear
7:16 AM 23.0 °F 15.8 °F 19.4 °F 86% 29.40 in 10.0 mi North 5.8 mph - N/A   Clear
7:36 AM 24.8 °F 16.1 °F 21.2 °F 86% 29.40 in 10.0 mi NNW 8.1 mph - N/A   Clear
7:56 AM 23.0 °F 13.9 °F 21.2 °F 93% - 10.0 mi North 8.1 mph - N/A   Clear
8:16 AM 23.0 °F 14.7 °F 21.2 °F 93% - 10.0 mi North 6.9 mph - N/A   Clear
8:36 AM 21.2 °F 12.6 °F 19.4 °F 93% - 10.0 mi North 6.9 mph - N/A   Clear
8:56 AM 19.4 °F 10.4 °F 19.4 °F 100% 29.39 in 10.0 mi North 6.9 mph - N/A   Clear
9:16 AM 21.2 °F 13.6 °F 19.4 °F 93% 29.39 in 10.0 mi North 5.8 mph - N/A   Clear
9:36 AM 23.0 °F 13.1 °F 19.4 °F 86% 29.40 in 10.0 mi NNW 9.2 mph - N/A   Clear
9:56 AM 23.0 °F 14.7 °F 19.4 °F 86% 29.39 in 10.0 mi North 6.9 mph - N/A   Clear
10:16 AM 23.0 °F 13.9 °F 21.2 °F 93% 29.40 in 10.0 mi North 8.1 mph - N/A   Clear
10:36 AM 23.0 °F 13.1 °F 19.4 °F 86% 29.40 in 10.0 mi North 9.2 mph - N/A   Clear
10:56 AM 23.0 °F 13.9 °F 19.4 °F 86% 29.40 in 10.0 mi North 8.1 mph - N/A   Clear
11:16 AM 23.0 °F 14.7 °F 21.2 °F 93% 29.40 in 10.0 mi North 6.9 mph - N/A   Clear
11:36 AM 23.0 °F 14.7 °F 19.4 °F 86% 29.40 in 10.0 mi NNW 6.9 mph - N/A   Clear
11:56 AM 21.2 °F 14.9 °F 19.4 °F 93% 29.41 in 10.0 mi North 4.6 mph - N/A   Clear
12:16 PM 21.2 °F 13.6 °F 17.6 °F 86% 29.41 in 10.0 mi North 5.8 mph - N/A   Clear
12:36 PM 21.2 °F 14.9 °F 19.4 °F 93% 29.41 in 10.0 mi North 4.6 mph - N/A   Clear
12:56 PM 24.8 °F 17.9 °F 19.4 °F 80% 29.41 in 10.0 mi North 5.8 mph - N/A   Clear
1:16 PM 24.8 °F 15.3 °F 19.4 °F 80% 29.41 in 10.0 mi NNW 9.2 mph - N/A   Clear
1:36 PM 26.6 °F 17.5 °F 21.2 °F 80% 29.41 in 10.0 mi NNW 9.2 mph - N/A   Clear
1:56 PM 26.6 °F 16.8 °F 21.2 °F 80% 29.40 in 10.0 mi NNW 10.4 mph - N/A   Clear
2:16 PM 26.6 °F 18.2 °F 21.2 °F 80% 29.41 in 10.0 mi North 8.1 mph - N/A   Clear
2:36 PM 26.6 °F 17.5 °F 21.2 °F 80% 29.40 in 10.0 mi North 9.2 mph - N/A   Clear
2:56 PM 26.6 °F 16.8 °F 21.2 °F 80% 29.40 in 10.0 mi NNW 10.4 mph - N/A   Clear
3:16 PM 28.4 °F 20.4 °F 21.2 °F 74% 29.40 in 10.0 mi North 8.1 mph - N/A   Clear
3:36 PM 28.4 °F 19.1 °F 19.4 °F 69% 29.40 in 10.0 mi North 10.4 mph - N/A   Clear
3:56 PM 28.4 °F 20.4 °F 21.2 °F 74% 29.40 in 10.0 mi North 8.1 mph - N/A   Clear
4:16 PM 28.4 °F 20.4 °F 21.2 °F 74% 29.40 in 10.0 mi North 8.1 mph - N/A   Clear
4:36 PM 28.4 °F 20.4 °F 19.4 °F 69% 29.40 in 10.0 mi North 8.1 mph - N/A   Clear
4:56 PM 28.4 °F 20.4 °F 19.4 °F 69% 29.40 in 10.0 mi North 8.1 mph - N/A   Clear
5:16 PM 28.4 °F 20.4 °F 21.2 °F 74% 29.40 in 10.0 mi North 8.1 mph - N/A   Clear
5:36 PM 28.4 °F 20.4 °F 21.2 °F 74% - 10.0 mi North 8.1 mph - N/A   Clear
5:56 PM 26.6 °F 18.2 °F 19.4 °F 74% 29.40 in 10.0 mi North 8.1 mph - N/A   Clear
6:16 PM 26.6 °F 17.5 °F 19.4 °F 74% 29.41 in 10.0 mi North 9.2 mph - N/A   Clear
6:36 PM 26.6 °F 18.2 °F 19.4 °F 74% 29.41 in 10.0 mi North 8.1 mph - N/A   Clear
6:56 PM 26.6 °F 19.1 °F 21.2 °F 80% 29.41 in 10.0 mi North 6.9 mph - N/A   Clear
7:16 PM 21.2 °F 13.6 °F 17.6 °F 86% 29.42 in 10.0 mi North 5.8 mph - N/A   Clear
7:36 PM 21.2 °F 13.6 °F 17.6 °F 86% 29.42 in 10.0 mi North 5.8 mph - N/A   Clear
7:56 PM 23.0 °F 15.8 °F 19.4 °F 86% 29.43 in 10.0 mi North 5.8 mph - N/A   Clear
8:16 PM 24.8 °F 17.9 °F 21.2 °F 86% 29.43 in 10.0 mi North 5.8 mph - N/A   Clear
8:36 PM 23.0 °F 14.7 °F 21.2 °F 93% 29.44 in 10.0 mi North 6.9 mph - N/A   Clear
8:56 PM 21.2 °F 13.6 °F 21.2 °F 100% 29.44 in 10.0 mi North 5.8 mph - N/A   Clear
9:16 PM 21.2 °F 11.7 °F 17.6 °F 86% 29.45 in 10.0 mi North 8.1 mph - N/A   Clear
9:36 PM 21.2 °F 12.6 °F 17.6 °F 86% 29.45 in 10.0 mi North 6.9 mph - N/A   Clear
9:56 PM 21.2 °F 12.6 °F 19.4 °F 93% 29.45 in 10.0 mi North 6.9 mph - N/A   Clear
10:16 PM 21.2 °F 13.6 °F 19.4 °F 93% 29.46 in 10.0 mi North 5.8 mph - N/A   Clear
10:36 PM 23.0 °F 15.8 °F 19.4 °F 86% 29.46 in 10.0 mi North 5.8 mph - N/A   Clear
10:56 PM 19.4 °F 11.5 °F 19.4 °F 100% 29.46 in 10.0 mi North 5.8 mph - N/A   Clear
11:16 PM 21.2 °F 12.6 °F 19.4 °F 93% 29.47 in 10.0 mi North 6.9 mph - N/A   Clear
11:36 PM 19.4 °F 11.5 °F 17.6 °F 93% 29.47 in 10.0 mi North 5.8 mph - N/A   Clear
11:56 PM 19.4 °F 10.4 °F 17.6 °F 93% 29.48 in 10.0 mi North 6.9 mph - N/A   Clear